Terminal Aerodrome Forecast
Issued by NWS

Home | Current Version | Previous Version | Graphics & Text | Print | Product List | Glossary On
Versions: 1 2 3 4 5 6 7 8 9 10 11 12 13 14 15 16 17 18 19 20 21 22 23 24 25 26 27 28 29 30 31 32 33 34 35 36
890
FTUS43 KGRB 250632 AAA
TAFATW
TAF AMD
KATW 250632Z 2507/2606 26007KT P6SM -SHRA SCT035 BKN070
     FM251800 29009KT P6SM VCSH BKN040
     FM260000 28008KT P6SM VCSH BKN030=

USA.gov is the U.S. government's official web portal to all federal, state and local government web resources and services.